DateTimeUTC,F1_A11,F1_S11,BsB_S11,BsG_S11,BsR_S11,BbsB_S11,BbsG_S11,BbsR_S11,BaB_A11,BaG_A11,BaR_A11,Tu_S11,T_S11,Uu_S11,U_S11,P_S11,T1_A11
2021-08-20T06:00:00Z,00000200,20000000,,,,,,,-000.12,-000.19,0000.25,19.2,26.0,11.4,07.6,0674.6,31.1
2021-08-20T06:01:00Z,00000200,20000000,,,,,,,0000.10,0000.53,0000.23,19.2,26.0,11.5,07.6,0674.6,31.1
2021-08-20T06:02:00Z,00000200,20000000,,,,,,,0000.02,-000.39,-000.19,19.2,26.0,11.4,07.6,0674.6,31.1
2021-08-20T06:03:00Z,00000200,60000000,,,,,,,0000.36,0000.16,0000.03,19.2,26.0,11.2,07.4,0674.6,31.1
2021-08-20T06:04:00Z,00000200,40000000,0003.29,0002.23,0001.23,0000.76,0000.42,0000.05,0000.58,0000.62,0000.78,19.4,25.9,11.2,07.5,0675.5,31.1
2021-08-20T06:05:00Z,00000200,00000000,0003.43,0002.58,0001.72,0000.59,0000.36,0000.29,0000.73,0001.01,0000.30,19.4,25.8,11.2,07.6,0675.6,31.1
2021-08-20T06:06:00Z,00000200,00000000,0003.46,0002.78,0001.45,0000.59,0000.29,0000.11,0000.86,0000.79,0000.88,19.4,25.8,11.2,07.6,0675.6,31.1
2021-08-20T06:07:00Z,00000200,00000000,0003.49,0002.66,0001.41,0000.04,0000.40,0000.27,0001.23,0000.60,0000.34,19.4,25.8,11.3,07.7,0675.5,31.1
2021-08-20T06:08:00Z,00000200,00000000,0004.23,0002.75,0001.39,0000.90,0000.05,0000.07,0000.13,0000.58,0000.70,19.4,25.8,11.2,07.6,0675.5,31.1
2021-08-20T06:09:00Z,00000200,00000000,0003.85,0002.51,0001.50,0000.44,0000.62,0000.04,0001.21,0000.88,0000.24,19.4,25.8,11.2,07.7,0675.6,31.1
2021-08-20T06:10:00Z,00000200,00000000,0001.88,0001.32,0000.87,0000.29,-000.08,0000.25,0000.73,0000.54,0000.75,19.4,25.8,11.2,07.7,0675.5,31.1
2021-08-20T06:11:00Z,00000200,00000000,0002.90,0001.97,0001.20,0000.64,0000.52,-000.01,0000.36,0000.61,0000.38,19.4,25.8,11.2,07.6,0675.5,31.1
2021-08-20T06:12:00Z,00000200,00000000,0003.52,0002.09,0001.16,0000.22,0000.29,0000.07,0000.73,0000.55,0000.10,19.4,25.8,11.2,07.7,0675.5,31.1
2021-08-20T06:13:00Z,00000200,00000000,0002.67,0001.83,0001.26,0000.53,0000.41,0000.10,0000.51,0000.47,0000.87,19.5,25.8,11.1,07.6,0675.5,31.1
2021-08-20T06:14:00Z,00000200,00000000,0003.21,0002.31,0001.46,0000.88,0000.30,0000.14,0000.66,0000.87,0000.51,19.5,25.8,11.2,07.6,0675.5,31.1
2021-08-20T06:15:00Z,00000200,00000000,0002.66,0002.09,0001.46,0000.27,0000.28,0000.42,0000.77,0000.60,0000.17,19.5,25.8,11.2,07.6,0675.5,31.1
2021-08-20T06:16:00Z,00000200,00000000,0003.43,0002.09,0001.14,0000.92,0000.46,-000.14,0000.56,0000.08,0000.79,19.5,25.8,11.2,07.6,0675.5,31.1
2021-08-20T06:17:00Z,00000200,00000000,0003.21,0002.01,0001.57,0000.32,0000.37,0000.17,0000.79,0000.71,0000.27,19.5,25.8,11.1,07.6,0675.5,31.1
2021-08-20T06:18:00Z,00000200,00000000,0003.63,0001.90,0001.22,0000.64,0000.24,0000.05,0000.40,0000.60,0000.75,19.5,25.8,11.1,07.6,0675.5,31.1
2021-08-20T06:19:00Z,00000200,00000000,0002.79,0001.65,0000.89,0000.76,0000.27,0000.24,0000.60,0000.45,0000.10,19.5,25.8,11.0,07.5,0675.5,31.1
2021-08-20T06:20:00Z,00000200,00000000,0002.78,0001.85,0001.34,0000.14,0000.47,0000.35,0000.61,0000.67,0000.29,19.5,25.8,11.0,07.5,0675.5,31.1
2021-08-20T06:21:00Z,00000200,00000000,0002.51,0001.95,0001.13,0000.28,0000.24,0000.15,0000.59,0000.31,0000.60,19.5,25.8,11.0,07.5,0675.5,31.1
2021-08-20T06:22:00Z,00000200,00000000,0002.93,0001.23,0000.76,0000.76,0000.38,-000.04,0000.32,0000.73,0000.22,19.5,25.8,11.0,07.5,0675.6,31.1
2021-08-20T06:23:00Z,00000200,00000000,0002.22,0001.89,0001.34,0000.19,0000.34,0000.04,0000.48,0000.31,0000.14,19.5,25.8,11.0,07.5,0675.6,31.1
2021-08-20T06:24:00Z,00000200,00000000,0002.50,0001.30,0000.97,0000.21,0000.18,0000.37,0000.86,0000.56,0000.50,19.5,25.8,10.8,07.4,0675.6,31.1
2021-08-20T06:25:00Z,00000200,00000000,0002.23,0001.25,0000.70,0000.01,0000.30,0000.13,0000.27,0000.33,0000.62,19.5,25.8,11.0,07.5,0675.6,31.1
2021-08-20T06:26:00Z,00000200,00000000,0001.64,0001.20,0000.81,0000.49,0000.33,0000.17,0000.34,0000.54,0000.24,19.5,25.8,10.9,07.4,0675.6,31.0
2021-08-20T06:27:00Z,00000200,00000000,0003.75,0002.53,0001.66,0000.21,0000.39,0000.15,0000.77,0000.45,0000.40,19.5,25.8,10.9,07.5,0675.6,31.1
2021-08-20T06:28:00Z,00000200,00000000,0003.26,0002.47,0001.63,0000.94,0000.45,0000.03,0000.67,0001.10,0000.58,19.4,25.8,10.9,07.5,0675.6,31.1
2021-08-20T06:29:00Z,00000200,00000000,0003.63,0002.70,0001.64,0000.81,0000.48,-000.21,0000.73,0000.29,0000.63,19.5,25.8,10.8,07.4,0675.6,31.1
2021-08-20T06:30:00Z,00000200,00000000,0003.50,0002.79,0001.61,0000.13,0000.34,0000.45,0001.19,0001.27,0000.82,19.5,25.8,10.9,07.4,0675.6,31.0
2021-08-20T06:31:00Z,00000200,00000000,0003.76,0002.51,0001.74,0000.02,0000.61,0000.47,0000.72,0000.37,0000.27,19.5,25.7,10.9,07.5,0675.6,31.1
2021-08-20T06:32:00Z,00000200,00000000,0003.13,0002.36,0001.61,0000.98,0000.46,0000.03,0000.35,0000.54,0000.57,19.4,25.7,11.1,07.6,0675.6,31.1
2021-08-20T06:33:00Z,00000200,00000000,0003.75,0001.97,0001.48,0000.07,0000.41,0000.13,0000.96,0000.99,0000.59,19.5,25.7,10.9,07.5,0675.6,31.1
2021-08-20T06:34:00Z,00000200,00000000,0003.23,0002.30,0001.56,0001.08,0000.49,0000.17,0000.90,0000.77,0000.31,19.5,25.8,11.0,07.5,0675.6,31.1
2021-08-20T06:35:00Z,00000200,00000000,0002.35,0002.83,0002.04,0000.43,0000.25,0000.34,0001.09,0000.66,0000.50,19.5,25.7,11.1,07.5,0675.6,31.1
2021-08-20T06:36:00Z,00000200,00000000,0003.98,0002.31,0001.60,0000.20,0000.50,-000.04,0000.43,0000.69,0000.67,19.5,25.7,11.0,07.5,0675.6,31.1
2021-08-20T06:37:00Z,00000200,00000000,0003.11,0002.85,0001.89,0000.36,0000.13,0000.55,0000.93,0000.99,0000.65,19.5,25.7,11.1,07.6,0675.6,31.1
2021-08-20T06:38:00Z,00000200,00000000,0003.22,0003.00,0001.63,0000.26,0000.18,0000.04,0001.01,0000.46,0000.79,19.5,25.8,11.0,07.5,0675.6,31.1
2021-08-20T06:39:00Z,00000200,00000000,0003.70,0002.63,0001.54,0001.35,0000.19,0000.36,0001.05,0000.95,0000.98,19.5,25.7,11.0,07.5,0675.6,31.1
2021-08-20T06:40:00Z,00000200,00000000,0004.81,0002.97,0002.09,0000.37,0000.35,0000.65,0000.91,0000.79,0000.46,19.5,25.8,11.1,07.5,0675.6,31.1
2021-08-20T06:41:00Z,00000200,00000000,0003.80,0003.15,0002.17,0000.03,0000.66,0000.07,0001.25,0001.41,0000.66,19.5,25.7,11.1,07.6,0675.6,31.1
2021-08-20T06:42:00Z,00000200,00000000,0003.97,0002.99,0002.16,0000.40,0000.54,0000.58,0000.31,0000.64,0000.55,19.4,25.7,11.0,07.5,0675.6,31.1
2021-08-20T06:43:00Z,00000200,00000000,0003.84,0002.82,0001.90,0000.60,0000.57,0000.22,0001.46,0000.98,0000.87,19.4,25.7,11.0,07.5,0675.6,31.1
2021-08-20T06:44:00Z,00000200,00000000,0004.45,0003.13,0001.75,-000.03,0000.61,-000.10,0000.91,0000.91,0000.61,19.4,25.7,11.1,07.6,0675.6,31.1
2021-08-20T06:45:00Z,00000200,00000000,0003.25,0002.79,0001.79,0000.40,0000.40,0000.38,0000.72,0000.73,0000.81,19.4,25.7,11.1,07.6,0675.6,31.1
2021-08-20T06:46:00Z,00000200,00000000,0004.46,0003.05,0001.70,0000.09,0000.28,0000.18,0000.70,0000.87,0000.49,19.4,25.7,11.1,07.6,0675.6,31.0
2021-08-20T06:47:00Z,00000200,00000000,0004.04,0002.39,0001.75,0000.74,0000.65,0000.46,0001.08,0000.44,0000.41,19.4,25.7,11.1,07.6,0675.6,31.1
2021-08-20T06:48:00Z,00000200,00000000,0004.52,0002.89,0001.75,0000.04,0000.39,0000.25,0000.85,0001.21,0000.65,19.4,25.7,11.1,07.6,0675.6,31.0
2021-08-20T06:49:00Z,00000200,00000000,0004.64,0002.96,0001.72,0001.06,0000.37,0000.10,0001.10,0000.55,0001.01,19.4,25.8,11.1,07.6,0675.6,31.1
2021-08-20T06:50:00Z,00000200,00000000,0003.81,0003.27,0002.22,0000.28,0000.53,0000.23,0000.55,0000.88,0000.45,19.4,25.7,11.1,07.6,0675.6,31.1
2021-08-20T06:51:00Z,00000200,00000000,0003.70,0002.56,0002.04,0000.94,0000.29,0000.46,0001.21,0001.22,0000.54,19.5,25.7,11.1,07.6,0675.6,31.1
2021-08-20T06:52:00Z,00000200,00000000,0003.03,0001.72,0001.12,0000.27,0000.19,0000.16,0000.72,0000.49,0000.74,19.5,25.7,11.0,07.5,0675.6,31.1
2021-08-20T06:53:00Z,00000200,00000000,0001.91,0001.88,0001.07,0000.40,0000.46,-000.08,0000.48,0000.17,0000.03,19.4,25.7,11.1,07.6,0675.6,31.1
2021-08-20T06:54:00Z,00000200,00000000,0002.85,0001.36,0001.17,0000.45,0000.35,-000.14,0000.22,0000.75,0000.41,19.5,25.8,11.0,07.5,0675.6,31.1
2021-08-20T06:55:00Z,00000200,00000000,0002.02,0001.18,0000.68,0000.22,-000.16,0000.12,0000.64,0000.31,0000.52,19.5,25.7,11.0,07.5,0675.6,31.1
2021-08-20T06:56:00Z,00000200,00000000,0003.10,0001.75,0000.80,0000.35,0000.42,0000.20,0000.57,0000.50,0000.34,19.5,25.7,11.0,07.5,0675.6,31.1
2021-08-20T06:57:00Z,00000200,40000000,,,,,,,0000.47,0000.70,0000.36,19.5,25.8,11.1,07.6,0675.6,31.1
2021-08-20T06:58:00Z,00000200,60000000,,,,,,,-000.21,-000.65,-000.39,19.2,25.9,11.1,07.4,0674.7,31.1
2021-08-20T06:59:00Z,00000200,20000000,,,,,,,-000.02,0000.39,-000.17,19.2,26.0,11.2,07.4,0674.6,31.1
